Location: Unspecified
(0.0000°N, 0.0000°E)
Time: 18:46:41
(UTC+00:00)

Vanguard 1 - Pass Details

Date: 22 November 2019
Orbit: 652 x 3831 km, 34.2° (Epoch: 05 December)

Event Time Altitude Azimuth Distance (km) Brightness Sun altitude
Rises 03:28:26 0° 224° (SW) 7,498 14.4 -32.0°
Reaches altitude 10° 03:33:41 10° 218° (SW) 6,711 14.1 -30.8°
Maximum altitude 03:56:01 49° 147° (SSE) 4,345 13.5 -25.7°
Drops below altitude 10° 04:14:07 10° 78° (ENE) 5,645 14.7 -21.5°
Sets 04:17:56 0° 72° (ENE) 6,300 15.0 -20.6°
